FW0153 Weather Reports


Display with metric or nautical units.
time (UTC)temp
F
wind
direction
speed
MPH
gust
MPH
rain 1hr
in
rain 24hr
in
rain mn
in
humidity
%
barometer
mb
20260903235005 88 90 18.0 0.0 0.00 0.00 0.00 51 1007.6
20260903234711 88 110 4.0 0.0 0.00 0.00 0.00 50 1007.9
20260903234005 88 331 13.0 0.0 0.00 0.00 0.00 50 1007.6
20260903233505 89 70 23.0 0.0 0.00 0.00 0.00 50 1007.2
20260903233005 89 110 9.0 0.0 0.00 0.00 0.00 49 1007.6
20260903232505 89 176 18.0 0.0 0.00 0.00 0.00 48 1007.2
20260903232004 89 66 23.0 0.0 0.00 0.00 0.00 46 1007.6
20260903231505 90 82 27.0 0.0 0.00 0.00 0.00 45 1007.2
20260903231005 90 8 23.0 0.0 0.00 0.00 0.00 44 1007.2
20260903230505 90 178 13.0 0.0 0.00 0.00 0.00 43 1006.9
20260903230005 91 17 13.0 0.0 0.00 0.00 0.00 42 1007.2
20260903225505 92 109 13.0 0.0 0.00 0.00 0.00 42 1006.9
20260903225005 92 160 4.0 0.0 0.00 0.00 0.00 42 1006.9
20260903224504 92 129 9.0 0.0 0.00 0.00 0.00 42 1006.9
20260903224005 92 118 13.0 0.0 0.00 0.00 0.00 42 1006.9
20260903223505 92 193 9.0 0.0 0.00 0.00 0.00 41 1006.5
20260903223212 92 162 9.0 0.0 0.00 0.00 0.00 42 1006.5
20260903222505 93 132 23.0 0.0 0.00 0.00 0.00 40 1006.5
20260903222212 93 193 13.0 0.0 0.00 0.00 0.00 41 1006.5
20260903221505 92 64 23.0 0.0 0.00 0.00 0.00 42 1006.9
20260903221005 92 70 13.0 0.0 0.00 0.00 0.00 41 1006.5
20260903220505 93 331 23.0 0.0 0.00 0.00 0.00 41 1006.5
20260903220005 93 25 18.0 0.0 0.00 0.00 0.00 41 1006.5
20260903215713 94 85 13.0 0.0 0.00 0.00 0.00 39 1006.5
20260903215005 94 132 4.0 0.0 0.00 0.00 0.00 38 1006.2
20260903214505 92 182 13.0 0.0 0.00 0.00 0.00 40 1006.5
20260903214005 93 43 13.0 0.0 0.00 0.00 0.00 41 1006.5
20260903213504 93 69 13.0 0.0 0.00 0.00 0.00 40 1006.5
20260903213214 93 38 13.0 0.0 0.00 0.00 0.00 39 1006.5
20260903212504 95 166 23.0 0.0 0.00 0.00 0.00 37 1006.5
20260903212005 95 125 13.0 0.0 0.00 0.00 0.00 36 1006.5
20260903211505 95 354 13.0 0.0 0.00 0.00 0.00 36 1006.5
20260903211005 95 79 4.0 0.0 0.00 0.00 0.00 36 1006.9
20260903210505 95 37 9.0 0.0 0.00 0.00 0.00 36 1006.5
20260903210211 95 66 9.0 0.0 0.00 0.00 0.00 36 1006.9
20260903205505 95 40 4.0 0.0 0.00 0.00 0.00 36 1006.9
20260903205211 95 121 4.0 0.0 0.00 0.00 0.00 37 1006.9
20260903204505 95 160 9.0 0.0 0.00 0.00 0.00 37 1006.9
20260903204005 94 133 0.0 0.0 0.00 0.00 0.00 38 1007.2
20260903203505 95 56 18.0 0.0 0.00 0.00 0.00 37 1006.9
20260903203005 95 73 4.0 0.0 0.00 0.00 0.00 39 1006.9
20260903202505 95 142 18.0 0.0 0.00 0.00 0.00 39 1007.2
20260903202005 95 165 13.0 0.0 0.00 0.00 0.00 39 1007.2
20260903201505 95 83 4.0 0.0 0.00 0.00 0.00 39 1007.2
20260903201004 95 124 9.0 0.0 0.00 0.00 0.00 38 1007.2
20260903200505 95 71 13.0 0.0 0.00 0.00 0.00 41 1007.6
20260903200005 95 33 9.0 0.0 0.00 0.00 0.00 41 1007.6
20260903195505 95 64 13.0 0.0 0.00 0.00 0.00 40 1007.6
20260903195005 93 37 9.0 0.0 0.00 0.00 0.00 41 1007.6
20260903194505 94 8 18.0 0.0 0.00 0.00 0.00 42 1007.6
20260903194005 95 56 18.0 0.0 0.00 0.00 0.00 41 1007.9
20260903193505 95 72 9.0 0.0 0.00 0.00 0.00 41 1007.9
20260903193004 95 353 23.0 0.0 0.00 0.00 0.00 42 1007.9
20260903192505 95 359 9.0 0.0 0.00 0.00 0.00 42 1007.9
20260903192213 94 25 9.0 0.0 0.00 0.00 0.00 42 1007.9
20260903191505 94 172 4.0 0.0 0.00 0.00 0.00 42 1008.2
20260903191005 94 57 23.0 0.0 0.00 0.00 0.00 42 1008.2
20260903190505 95 108 13.0 0.0 0.00 0.00 0.00 41 1008.2
20260903190005 94 85 4.0 0.0 0.00 0.00 0.00 40 1008.2
20260903185505 94 119 13.0 0.0 0.00 0.00 0.00 41 1008.6
20260903185005 93 179 4.0 0.0 0.00 0.00 0.00 42 1008.6
20260903184711 92 309 13.0 0.0 0.00 0.00 0.00 44 1008.9
20260903184005 93 9 9.0 0.0 0.00 0.00 0.00 43 1008.6
20260903183505 93 161 13.0 0.0 0.00 0.00 0.00 41 1008.9
20260903183005 93 164 9.0 0.0 0.00 0.00 0.00 41 1008.9
20260903182505 93 150 13.0 0.0 0.00 0.00 0.00 43 1009.3
20260903182005 92 162 18.0 0.0 0.00 0.00 0.00 43 1008.9
20260903181711 92 48 9.0 0.0 0.00 0.00 0.00 43 1009.3
20260903181005 92 218 18.0 0.0 0.00 0.00 0.00 43 1009.3
20260903180711 92 138 9.0 0.0 0.00 0.00 0.00 43 1009.3
20260903180005 92 89 13.0 0.0 0.00 0.00 0.00 43 1009.3
20260903175505 92 157 13.0 0.0 0.00 0.00 0.00 44 1009.9
20260903175005 92 150 32.0 0.0 0.00 0.00 0.00 44 1009.6
20260903174505 91 39 4.0 0.0 0.00 0.00 0.00 46 1009.6
20260903174212 92 193 13.0 0.0 0.00 0.00 0.00 44 1009.6
20260903173505 91 167 23.0 0.0 0.00 0.00 0.00 46 1009.9
20260903173005 90 111 4.0 0.0 0.00 0.00 0.00 47 1009.9
20260903172711 90 101 13.0 0.0 0.00 0.00 0.00 49 1009.9
20260903172005 90 198 9.0 0.0 0.00 0.00 0.00 47 1010.3
20260903171505 91 126 4.0 0.0 0.00 0.00 0.00 46 1009.9
20260903171005 89 161 13.0 0.0 0.00 0.00 0.00 48 1010.3
20260903170505 90 237 23.0 0.0 0.00 0.00 0.00 47 1010.6
20260903170005 89 188 37.0 0.0 0.00 0.00 0.00 47 1010.6
20260903165505 89 182 13.0 0.0 0.00 0.00 0.00 50 1010.6
20260903165004 89 106 9.0 0.0 0.00 0.00 0.00 50 1010.6
20260903164505 89 111 23.0 0.0 0.00 0.00 0.00 49 1011.0
20260903164212 90 145 13.0 0.0 0.00 0.00 0.00 49 1010.6
20260903163505 89 57 9.0 0.0 0.00 0.00 0.00 50 1010.6
20260903163005 88 51 13.0 0.0 0.00 0.00 0.00 51 1011.0
20260903162504 89 164 27.0 0.0 0.00 0.00 0.00 52 1010.6
20260903162005 89 214 9.0 0.0 0.00 0.00 0.00 51 1011.0
20260903161713 88 272 4.0 0.0 0.00 0.00 0.00 52 1010.6
20260903161005 88 59 9.0 0.0 0.00 0.00 0.00 54 1011.0
20260903160505 88 176 18.0 0.0 0.00 0.00 0.00 53 1011.0
20260903160005 87 154 13.0 0.0 0.00 0.00 0.00 56 1010.6
20260903155505 87 145 9.0 0.0 0.00 0.00 0.00 56 1010.6
20260903155005 86 93 13.0 0.0 0.00 0.00 0.00 58 1010.6
20260903154505 86 76 23.0 0.0 0.00 0.00 0.00 57 1010.6
20260903154004 86 148 13.0 0.0 0.00 0.00 0.00 58 1010.6
20260903153505 86 104 18.0 0.0 0.00 0.00 0.00 59 1010.6
20260903153005 86 66 13.0 0.0 0.00 0.00 0.00 59 1010.6
20260903152505 86 148 9.0 0.0 0.00 0.00 0.00 59 1010.6
20260903152005 86 118 9.0 0.0 0.00 0.00 0.00 61 1011.0
20260903151505 86 138 13.0 0.0 0.00 0.00 0.00 62 1011.0
20260903151213 85 260 13.0 0.0 0.00 0.00 0.00 62 1011.3
20260903150505 85 146 13.0 0.0 0.00 0.00 0.00 63 1011.3
20260903150005 84 85 13.0 0.0 0.00 0.00 0.00 64 1011.0
20260903145505 84 114 13.0 0.0 0.00 0.00 0.00 66 1011.0
20260903145005 84 213 13.0 0.0 0.00 0.00 0.00 66 1011.0
20260903144505 84 226 9.0 0.0 0.00 0.00 0.00 67 1011.3
20260903144005 84 60 13.0 0.0 0.00 0.00 0.00 68 1011.0
20260903143712 83 170 4.0 0.0 0.00 0.00 0.00 69 1011.0
20260903143005 83 97 13.0 0.0 0.00 0.00 0.00 71 1011.0
20260903142505 83 50 9.0 0.0 0.00 0.00 0.00 72 1011.0
20260903142005 83 121 9.0 0.0 0.00 0.00 0.00 72 1011.3
20260903141504 82 4 13.0 0.0 0.00 0.00 0.00 74 1011.3
20260903141005 82 176 13.0 0.0 0.00 0.00 0.00 75 1011.0
20260903140712 82 341 9.0 0.0 0.00 0.00 0.00 75 1011.3
20260903140005 82 65 18.0 0.0 0.00 0.00 0.00 75 1011.3
20260903135505 81 252 4.0 0.0 0.00 0.00 0.00 78 1011.3
20260903135005 81 104 0.0 0.0 0.00 0.00 0.00 78 1011.3
20260903134505 80 65 4.0 0.0 0.00 0.00 0.00 80 1011.3
20260903134005 80 132 4.0 0.0 0.00 0.00 0.00 81 1011.3
20260903133504 80 82 4.0 0.0 0.00 0.00 0.00 81 1011.3
20260903133005 80 136 9.0 0.0 0.00 0.00 0.00 81 1011.3
20260903132505 80 123 4.0 0.0 0.00 0.00 0.00 82 1011.0
20260903132005 79 67 4.0 0.0 0.00 0.00 0.00 83 1011.0
20260903131505 79 8 13.0 0.0 0.00 0.00 0.00 83 1011.0
20260903131005 79 96 4.0 0.0 0.00 0.00 0.00 83 1011.0
20260903130505 79 122 0.0 0.0 0.00 0.00 0.00 83 1011.0
20260903130005 78 189 4.0 0.0 0.00 0.00 0.00 84 1011.0
20260903125505 78 61 9.0 0.0 0.00 0.00 0.00 84 1010.6
20260903125005 78 61 13.0 0.0 0.00 0.00 0.00 84 1010.6
20260903124711 78 126 4.0 0.0 0.00 0.00 0.00 84 1011.0
20260903124005 78 178 4.0 0.0 0.00 0.00 0.00 84 1010.6
20260903123505 78 125 4.0 0.0 0.00 0.00 0.00 84 1010.6
20260903123005 78 108 4.0 0.0 0.00 0.00 0.00 84 1011.0
20260903122713 78 118 4.0 0.0 0.00 0.00 0.00 84 1010.6
20260903122005 78 123 4.0 0.0 0.00 0.00 0.00 84 1010.6
20260903121504 78 133 0.0 0.0 0.00 0.00 0.00 84 1010.6
20260903121005 78 63 4.0 0.0 0.00 0.00 0.00 84 1010.6
20260903120505 78 115 9.0 0.0 0.00 0.00 0.00 84 1010.6
20260903120005 78 109 13.0 0.0 0.00 0.00 0.00 84 1011.0
20260903115505 78 53 0.0 0.0 0.00 0.00 0.00 84 1010.6
20260903115005 78 100 0.0 0.0 0.00 0.00 0.00 84 1010.6
20260903114505 78 103 0.0 0.0 0.00 0.00 0.00 84 1010.6
20260903114005 78 152 4.0 0.0 0.00 0.00 0.00 83 1010.6
20260903113505 78 141 4.0 0.0 0.00 0.00 0.00 83 1010.6
20260903113005 79 140 0.0 0.0 0.00 0.00 0.00 83 1010.6
20260903112504 79 87 4.0 0.0 0.00 0.00 0.00 83 1011.0
20260903112005 79 152 9.0 0.0 0.00 0.00 0.00 83 1010.6
20260903111505 79 97 9.0 0.0 0.00 0.00 0.00 83 1010.6
20260903111005 79 90 9.0 0.0 0.00 0.00 0.00 83 1010.6
20260903110505 79 160 4.0 0.0 0.00 0.00 0.00 83 1010.3
20260903110005 79 131 9.0 0.0 0.00 0.00 0.00 83 1010.6
20260903105505 79 82 4.0 0.0 0.00 0.00 0.00 83 1010.6
20260903105005 79 145 4.0 0.0 0.00 0.00 0.00 83 1010.6
20260903104505 79 122 4.0 0.0 0.00 0.00 0.00 83 1010.6
20260903104005 79 142 4.0 0.0 0.00 0.00 0.00 83 1010.6
20260903103505 79 159 4.0 0.0 0.00 0.00 0.00 83 1010.6
20260903103005 79 121 0.0 0.0 0.00 0.00 0.00 83 1010.3
20260903102713 79 142 9.0 0.0 0.00 0.00 0.00 83 1010.6
20260903102005 79 168 0.0 0.0 0.00 0.00 0.00 83 1010.6
20260903101505 79 91 13.0 0.0 0.00 0.00 0.00 83 1010.6
20260903101005 79 173 18.0 0.0 0.00 0.00 0.00 83 1010.3
20260903100505 79 150 0.0 0.0 0.00 0.00 0.00 83 1010.6
20260903100005 79 159 9.0 0.0 0.00 0.00 0.00 83 1010.6
20260903095505 79 166 9.0 0.0 0.00 0.00 0.00 83 1010.6
20260903095213 79 180 9.0 0.0 0.00 0.00 0.00 83 1011.0
20260903094712 79 62 4.0 0.0 0.00 0.00 0.00 82 1010.6
20260903094005 80 156 13.0 0.0 0.00 0.00 0.00 82 1010.6
20260903093504 80 158 23.0 0.0 0.00 0.00 0.00 82 1010.6
20260903093005 80 186 23.0 0.0 0.00 0.00 0.00 82 1010.6
20260903092505 80 162 9.0 0.0 0.00 0.00 0.00 82 1011.0
20260903092005 80 141 4.0 0.0 0.00 0.00 0.00 82 1010.6
20260903091505 80 160 9.0 0.0 0.00 0.00 0.00 82 1010.6
20260903091213 80 159 23.0 0.0 0.00 0.00 0.00 82 1011.0
20260903090505 80 26 4.0 0.0 0.00 0.00 0.00 82 1011.0
20260903090005 80 160 18.0 0.0 0.00 0.00 0.00 81 1011.0
20260903085505 80 70 13.0 0.0 0.00 0.00 0.00 81 1011.0
20260903085005 80 127 18.0 0.0 0.00 0.00 0.00 81 1011.0
20260903084712 80 207 18.0 0.0 0.00 0.00 0.00 81 1011.0
20260903084005 80 62 13.0 0.0 0.00 0.00 0.00 81 1011.0
20260903083505 80 152 18.0 0.0 0.00 0.00 0.00 81 1011.0
20260903083005 80 163 18.0 0.0 0.00 0.00 0.00 81 1011.0
20260903082504 80 148 13.0 0.0 0.00 0.00 0.00 80 1011.3
20260903082213 80 153 9.0 0.0 0.00 0.00 0.00 80 1011.0
20260903081505 80 170 55.0 0.0 0.00 0.00 0.00 80 1011.0
20260903081004 80 152 18.0 0.0 0.00 0.00 0.00 80 1011.3
20260903080505 80 59 9.0 0.0 0.00 0.00 0.00 80 1011.3
20260903080005 80 150 9.0 0.0 0.00 0.00 0.00 80 1011.3
20260903075505 80 139 13.0 0.0 0.00 0.00 0.00 80 1011.3
20260903075005 80 147 13.0 0.0 0.00 0.00 0.00 79 1011.3
20260903074505 80 179 9.0 0.0 0.00 0.00 0.00 79 1011.3
20260903074005 80 167 4.0 0.0 0.00 0.00 0.00 79 1011.3
20260903073505 80 141 4.0 0.0 0.00 0.00 0.00 79 1011.3
20260903073005 80 52 4.0 0.0 0.00 0.00 0.00 79 1011.3
20260903072711 80 164 18.0 0.0 0.00 0.00 0.00 79 1011.6
20260903072005 80 119 9.0 0.0 0.00 0.00 0.00 79 1011.3
20260903071505 80 150 13.0 0.0 0.00 0.00 0.00 79 1011.3
20260903071005 80 9 9.0 0.0 0.00 0.00 0.00 79 1011.0
20260903070505 80 62 4.0 0.0 0.00 0.00 0.00 80 1011.0
20260903070005 80 100 4.0 0.0 0.00 0.00 0.00 80 1011.3
20260903065505 80 123 4.0 0.0 0.00 0.00 0.00 80 1011.6
20260903065004 80 77 9.0 0.0 0.00 0.00 0.00 79 1011.3
20260903064505 80 82 13.0 0.0 0.00 0.00 0.00 79 1011.6
20260903064005 80 100 9.0 0.0 0.00 0.00 0.00 79 1011.3
20260903063505 80 160 13.0 0.0 0.00 0.00 0.00 79 1011.6
20260903063005 80 29 13.0 0.0 0.00 0.00 0.00 79 1011.3
20260903062713 80 61 4.0 0.0 0.00 0.00 0.00 78 1011.3
20260903062005 80 106 18.0 0.0 0.00 0.00 0.00 78 1011.3
20260903061713 80 149 9.0 0.0 0.00 0.00 0.00 78 1011.3
20260903061005 80 187 9.0 0.0 0.00 0.00 0.00 78 1011.3
20260903060505 80 143 13.0 0.0 0.00 0.00 0.00 77 1011.3
20260903060005 80 182 9.0 0.0 0.00 0.00 0.00 77 1011.6
20260903055505 80 23 13.0 0.0 0.00 0.00 0.00 77 1011.3
20260903055004 80 61 9.0 0.0 0.00 0.00 0.00 77 1011.6
20260903054505 80 139 9.0 0.0 0.00 0.00 0.00 77 1011.6
20260903054212 80 133 18.0 0.0 0.00 0.00 0.00 77 1011.6
20260903053505 80 274 13.0 0.0 0.00 0.00 0.00 77 1011.6
20260903053005 80 89 9.0 0.0 0.00 0.00 0.00 77 1011.6
20260903052505 80 80 18.0 0.0 0.00 0.00 0.00 77 1011.6
20260903052005 80 83 9.0 0.0 0.00 0.00 0.00 77 1011.6
20260903051505 80 141 4.0 0.0 0.00 0.00 0.00 77 1012.0
20260903051005 81 44 4.0 0.0 0.00 0.00 0.00 77 1011.6
20260903050505 81 156 13.0 0.0 0.00 0.00 0.00 77 1011.6
20260903045526 81 39 9.0 0.0 0.00 0.00 0.00 77 1011.6
20260903045236 81 106 13.0 0.0 0.00 0.00 0.00 77 1011.6
20260903044739 81 103 13.0 0.0 0.00 0.00 0.00 77 1011.6
20260903044008 81 165 4.0 0.0 0.00 0.00 0.00 77 1011.6
20260903043507 81 320 13.0 0.0 0.00 0.00 0.00 77 1011.6
20260903043014 81 79 9.0 0.0 0.00 0.00 0.00 77 1012.0
20260903042517 81 70 9.0 0.0 0.00 0.00 0.00 77 1012.0
20260903042228 81 40 4.0 0.0 0.00 0.00 0.00 77 1011.6
20260903041731 81 7 4.0 0.0 0.00 0.00 0.00 78 1012.0
20260903041234 81 123 4.0 0.0 0.00 0.00 0.00 78 1012.0
20260903040527 81 74 9.0 0.0 0.00 0.00 0.00 78 1012.0
20260903040032 81 102 9.0 0.0 0.00 0.00 0.00 78 1012.0
20260903035714 81 143 4.0 0.0 0.00 0.00 0.00 78 1012.0
20260903035010 81 48 13.0 0.0 0.00 0.00 0.00 78 1012.0
20260903034720 81 127 9.0 0.0 0.00 0.00 0.00 77 1011.6
20260903034017 81 49 18.0 0.0 0.00 0.00 0.00 77 1011.6
20260903033519 81 91 13.0 0.0 0.00 0.00 0.00 76 1011.6
20260903033023 81 71 4.0 0.0 0.00 0.00 0.00 76 1011.6
20260903032526 81 66 9.0 0.0 0.00 0.00 0.00 76 1011.6
20260903032029 81 104 4.0 0.0 0.00 0.00 0.00 75 1011.6
20260903031532 81 115 9.0 0.0 0.00 0.00 0.00 75 1011.6
20260903031007 82 111 13.0 0.0 0.00 0.00 0.00 75 1011.6
20260903030718 82 72 4.0 0.0 0.00 0.00 0.00 75 1011.3
20260903030013 82 201 9.0 0.0 0.00 0.00 0.00 74 1011.3
20260903025724 82 31 4.0 0.0 0.00 0.00 0.00 74 1011.3
20260903025019 82 180 13.0 0.0 0.00 0.00 0.00 73 1011.0
20260903024522 82 80 18.0 0.0 0.00 0.00 0.00 73 1011.3
20260903024233 82 113 18.0 0.0 0.00 0.00 0.00 72 1010.6
20260903023528 82 129 13.0 0.0 0.00 0.00 0.00 72 1011.0
20260903023031 82 88 18.0 0.0 0.00 0.00 0.00 72 1010.6
20260903022507 83 347 13.0 0.0 0.00 0.00 0.00 72 1010.6
20260903022010 83 76 18.0 0.0 0.00 0.00 0.00 72 1010.6
20260903021513 83 86 9.0 0.0 0.00 0.00 0.00 71 1010.6
20260903021016 83 347 9.0 0.0 0.00 0.00 0.00 70 1010.3
20260903020520 83 13 13.0 0.0 0.00 0.00 0.00 70 1009.9
20260903020022 83 112 13.0 0.0 0.00 0.00 0.00 69 1009.9
20260903015525 83 75 13.0 0.0 0.00 0.00 0.00 68 1010.3
20260903015029 83 94 9.0 0.0 0.00 0.00 0.00 67 1009.9
20260903014531 83 86 18.0 0.0 0.00 0.00 0.00 66 1009.6
20260903014007 84 76 4.0 0.0 0.00 0.00 0.00 65 1009.6
20260903013510 84 80 23.0 0.0 0.00 0.00 0.00 64 1009.6
20260903013013 85 70 13.0 0.0 0.00 0.00 0.00 62 1009.6
20260903012516 85 64 4.0 0.0 0.00 0.00 0.00 61 1009.3
20260903012019 85 47 13.0 0.0 0.00 0.00 0.00 61 1009.6
20260903011523 85 145 13.0 0.0 0.00 0.00 0.00 60 1009.3
20260903011025 85 126 9.0 0.0 0.00 0.00 0.00 59 1009.6
20260903010528 86 49 13.0 0.0 0.00 0.00 0.00 58 1008.9
20260903010032 86 122 13.0 0.0 0.00 0.00 0.00 57 1008.9
20260903005507 86 235 13.0 0.0 0.00 0.00 0.00 56 1009.3
20260903005011 86 358 13.0 0.0 0.00 0.00 0.00 55 1008.9
20260903004513 86 170 13.0 0.0 0.00 0.00 0.00 53 1008.9
20260903004016 87 98 18.0 0.0 0.00 0.00 0.00 51 1008.6
20260903003519 87 132 23.0 0.0 0.00 0.00 0.00 49 1008.9
20260903003022 87 4 23.0 0.0 0.00 0.00 0.00 49 1008.9
20260903002525 88 85 13.0 0.0 0.00 0.00 0.00 49 1008.9
20260903002028 88 98 23.0 0.0 0.00 0.00 0.00 47 1008.9
20260903001531 88 117 13.0 0.0 0.00 0.00 0.00 45 1008.9
20260903001007 88 118 4.0 0.0 0.00 0.00 0.00 44 1008.6
20260903000510 89 84 4.0 0.0 0.00 0.00 0.00 44 1008.6
20260903000013 89 49 0.0 0.0 0.00 0.00 0.00 45 1008.9
20260902235516 89 108 4.0 0.0 0.00 0.00 0.00 46 1008.6